Location: Stigler
(35.2540°N, 95.1230°W)
Time: 20:53:08
(UTC-06:00)

Daily predictions for brighter satellites

Satellite Brightness Start Highest point End
(mag) Time Altitude Azimuth Time Altitude Azimuth Time Altitude Azimuth
Cosmos 1544 Rocket 3.9 17:34:06 10° N 17:38:25 47° E 17:42:43 10° SSE
Cosmos 1975 Rocket 3.7 17:34:36 10° SSW 17:38:50 58° W 17:43:06 10° N
COSMO-SKYMED 1 3.7 17:36:41 10° NE 17:40:11 24° E 17:43:39 10° SSE
PAYLOAD A 4.2 17:44:27 10° S 17:49:12 72° W 17:54:08 10° NNW
Hubble Space Telescope 3.6 17:51:02 10° SW 17:52:57 13° SSW 17:54:53 10° S
Tiangong 1 1.2 17:51:58 10° SW 17:54:56 55° SSE 17:57:12 16° ENE
Cosmos 1536 Rocket 3.6 17:51:01 10° S 17:55:23 59° E 17:59:48 10° NNE
SJ-7 4.4 17:52:31 10° SSE 17:56:43 75° ENE 18:00:58 10° N
Okean 1 3.3 17:57:07 10° S 18:01:05 60° E 18:05:06 10° NNE
YAOGAN 1 2.6 17:59:04 10° SSE 18:03:24 86° W 18:07:44 10° NNW
SPOT 3 Rocket 3.7 17:58:33 10° S 18:03:44 80° WSW 18:08:56 10° NNW
Cosmos 1812 2.8 18:01:05 10° S 18:04:55 79° W 18:08:48 10° N
CZ-4 R/B 4.3 18:03:10 10° SSE 18:07:17 78° ENE 18:11:27 10° N
Meteor 1-18 Rocket 4.3 18:03:17 10° S 18:08:53 82° W 18:14:37 10° N
CZ-3A R/B 4.5 18:05:36 10° WNW 18:10:46 36° N 18:30:39 12° NE
USA 234 4.4 18:05:01 10° NNE 18:10:47 35° NNW 18:16:32 10° W
Cosmos 1844 Rocket 4.2 18:06:33 10° SW 18:11:35 34° WNW 18:16:41 10° N
COSMOS 2487 3.6 18:09:15 10° NNE 18:12:11 23° ENE 18:13:00 21° E
Cosmos 921 Rocket 3.8 18:08:49 10° SSE 18:12:29 29° E 18:14:34 20° NE
ISS -0.6 18:12:06 10° NW 18:12:47 10° NNW 18:13:27 10° NNW
Cosmos 1346 Rocket 2.7 18:13:06 10° S 18:16:57 61° E 18:20:48 10° NNE
IDEFIX/ARIANE 42P 3.5 18:19:25 10° S 18:24:28 51° W 18:29:32 10° NNW
NOSS 3-3 (A) 4.3 18:18:52 10° SW 18:24:57 66° WNW 18:31:29 10° NNE
NOSS 3-3 (C) 4.3 18:18:58 10° SW 18:25:03 66° WNW 18:31:34 10° NNE
Cosmos 1455 Rocket 3.8 18:23:29 10° NNW 18:27:49 57° W 18:32:09 10° S
SKYMED 2 3.5 18:24:02 10° NNE 18:28:24 89° SE 18:32:43 10° SSW
Okean 1-7 Rocket 3.8 18:24:41 10° SSE 18:29:02 49° E 18:32:12 18° NNE
Cosmos 494 Rocket 4.2 18:23:56 10° NNW 18:29:11 75° WSW 18:34:25 10° S
Cosmos 2297 3.6 18:25:03 10° S 18:30:38 68° ESE 18:35:04 17° NNE
Intercosmos 25 4.2 18:33:03 26° SE 18:33:03 26° SE 18:34:57 10° SSE
Delta 2 Rocket 3.4 18:32:50 10° WSW 18:36:39 64° SSE 18:38:03 38° E
CZ-4 R/B 4.2 18:33:41 10° SSW 18:36:56 22° W 18:40:10 10° NW
ATLAS 2AS CENTAUR R/B 3.2 18:29:02 10° NW 18:37:02 74° WSW 18:44:23 10° SSE
MSX 4.4 18:33:39 10° S 18:39:20 61° W 18:45:01 10° NNW
OTV 4 2.8 18:38:38 10° W 18:41:02 22° SSW 18:42:43 14° SSE
Cosmos 2278 Rocket 3.4 18:39:40 10° SW 18:44:57 41° WNW 18:50:17 10° N
Cosmos 1934 Rocket 4.3 18:41:25 10° N 18:47:11 40° ENE 18:53:00 10° SSE
Cosmos 1809 Rocket 4.5 18:42:30 10° N 18:48:40 84° W 18:54:45 10° S
Cosmos 1975 3.9 18:44:55 10° NNW 18:48:49 46° W 18:52:40 10° SSW
Meteor 1-19 Rocket 4.2 18:49:19 10° S 18:55:05 85° E 19:00:54 10° N
Timation 2 Rocket 4.1 18:50:43 10° NNW 18:57:32 67° ENE 19:04:22 10° SSE
Genesis I 3.4 18:55:13 10° NNW 18:58:26 56° N 18:58:26 56° N
Cosmos 1484 Rocket 4.4 18:59:05 10° SSW 19:02:32 33° W 19:05:57 10° NNW
Cosmos 2239 Rocket 4.3 18:56:47 10° N 19:02:59 72° E 19:09:06 10° SSE
NOAA 12 3.9 18:59:19 10° SSE 19:04:36 83° ENE 19:09:53 10° N
Cosmos 1743 3.6 19:10:05 41° S 19:10:05 41° S 19:12:40 10° S
Meteor 2-8 Rocket 4.3 19:06:17 10° S 19:12:18 69° E 19:14:09 45° NNE
Cosmos 1821 Rocket 3.8 19:06:28 10° N 19:12:35 82° E 19:18:40 10° S
METEOR-M 4.0 19:07:38 10° SSE 19:12:58 84° ENE 19:18:20 10° N
Cosmos 2082 Rocket 2.0 19:07:57 10° NNW 19:13:38 78° ENE 19:15:50 39° SSE
Cosmos 1833 Rocket 2.5 19:09:30 10° NNW 19:14:56 67° NE 19:14:56 67° NE
NOSS 2-1 (D) 4.3 19:17:30 10° SW 19:20:55 43° WNW 19:20:55 43° WNW
NOSS 2-1 (C) 4.3 19:18:11 10° SW 19:21:34 44° WNW 19:21:34 44° WNW
Meteor 1-23 Rocket 4.2 19:18:38 10° S 19:24:23 86° W 19:25:43 55° N
CZ-3B DEB 4.3 19:22:53 10° WNW 19:27:30 26° N 19:30:57 21° NNE
Tiangong 1 4.4 19:28:35 10° WNW 19:28:54 12° WNW 19:28:54 12° WNW
GEOS 3 Rocket 4.0 19:34:43 47° SSW 19:35:52 58° WSW 19:40:55 10° NW
Meteor 2-4 Rocket 4.3 19:33:54 10° SSW 19:39:10 52° W 19:40:40 40° NNW
Cosmos 2056 Rocket 4.0 19:36:35 10° SSW 19:41:13 60° WSW 19:41:13 60° WSW
FALCON 9 R/B 3.2 20:02:33 10° W 20:15:38 64° W 20:15:38 64° W
ATLAS 3B CENTAUR R/B 4.4 20:46:47 10° W 20:53:30 29° WSW 20:53:30 29° WSW
